• MPC Preparation (Info)

  • MPEC 2015-C46 : 2015 BV515

    The following Minor Planet Electronic Circular may be linked-to from your own Web pages, but must not otherwise be redistributed electronically.

    A form allowing access to any MPEC is at the bottom of this page.


    Read MPEC 2015-C45 Read MPEC 2015-C47


    M.P.E.C. 2015-C46                                Issued 2015 Feb. 11, 14:51 UT
    
         The Minor Planet Electronic Circulars contain information on unusual
             minor planets and routine data on comets.  They are published
       on behalf of Commission 20 of the International Astronomical Union by the
              Minor Planet Center, Smithsonian Astrophysical Observatory,
                              Cambridge, MA 02138, U.S.A.
    
                 Prepared using the Tamkin Foundation Computer Network
    
                                  MPC@CFA.HARVARD.EDU
                URL https://www.minorplanetcenter.net/    ISSN 1523-6714
    
                                      2015 BV515
    
    Observations:
         K15Bp5V  C2015 01 27.61458 11 51 43.507+14 30 03.83         21.8 wLEC046F51
         K15Bp5V  C2015 01 27.62673 11 51 45.181+14 30 12.48         21.7 wLEC046F51
         K15Bp5V  C2015 01 27.63884 11 51 46.833+14 30 20.64         21.6 wLEC046F51
         K15Bp5V  C2015 01 27.65093 11 51 48.492+14 30 29.00         21.5 wLEC046F51
         K15Bp5V* C2015 01 29.61478 11 56 39.075+14 54 37.47         21.7 wLEC046F51
         K15Bp5V  C2015 01 29.62691 11 56 40.841+14 54 46.97         21.7 wLEC046F51
         K15Bp5V  C2015 01 29.63905 11 56 42.619+14 54 56.43         21.7 wLEC046F51
         K15Bp5V  C2015 01 29.65119 11 56 44.330+14 55 05.71         21.6 wLEC046F51
         K15Bp5V KC2015 01 31.04166012 00 21.90 +15 14 16.8          21.5 RqEC046K91
         K15Bp5V KC2015 01 31.04889712 00 23.03 +15 14 22.8          21.7 RqEC046K91
         K15Bp5V KC2015 01 31.05345012 00 23.73 +15 14 26.7          21.8 RqEC046K91
         K15Bp5V KC2015 01 31.08302112 00 28.26 +15 14 51.9          21.6 RqEC046K92
         K15Bp5V KC2015 01 31.08948512 00 29.23 +15 14 57.6          21.8 RqEC046K92
         K15Bp5V KC2015 01 31.09594312 00 30.22 +15 15 03.3          21.6 RqEC046K92
         K15Bp5V KC2015 02 11.51540 12 39 12.00 +19 03 38.6          20.3 RoEC046291
         K15Bp5V KC2015 02 11.51656 12 39 12.28 +19 03 40.1          20.4 RoEC046291
         K15Bp5V KC2015 02 11.51771 12 39 12.60 +19 03 42.3          20.5 RoEC046291
    
    Observer details:
    291 LPL/Spacewatch II.  Observer R. A. Mastaler.  1.8-m f/2.7 reflector + CCD.
    F51 Pan-STARRS 1, Haleakala.  Observers B. Gibson, T. Goggia, N. Primak,
        A. Schultz, M. Willman.  Measurers K. Chambers, S. Chastel, L. Denneau,
        H. Flewelling, M. Huber, E. Magnier, E. Schunova, R. Wainscoat, C. Waters,
        R. Weryk.  1.8-m Ritchey-Chretien + CCD.
    K91 Sutherland-LCOGT A.  Observer T. Lister.  1.0-m f/8 Ritchey-Chretien + CCD.
    K92 Sutherland-LCOGT B.  Observer T. Lister.  1.0-m f/8 Ritchey-Chretien + CCD.
    
    Orbital elements:
    2015 BV515                                               Earth MOID = 0.0779 AU
    Epoch 2014 Dec. 9.0 TT = JDT 2457000.5                  MPC
    M 313.36281              (2000.0)            P               Q
    n   0.34542537     Peri.  139.89355     -0.38721027     +0.91221476
    a   2.0117155      Node   106.94780     -0.87772735     -0.32024929
    e   0.6417408      Incl.    8.04737     -0.28224617     -0.25554771
    P   2.85           H   21.0           G   0.15           U   6
    Residuals in seconds of arc
    150127 F51  0.0   0.2-    150129 F51  0.3+  0.1+    150131 K92  0.1-  0.0
    150127 F51  0.1+  0.1+    150129 F51  0.6-  0.0     150131 K92  0.0   0.2+
    150127 F51  0.0   0.0     150131 K91  0.3-  0.1+    150211 291  0.0   0.1+
    150127 F51  0.1-  0.1+    150131 K91  0.1+  0.1-    150211 291  0.2-  0.2-
    150129 F51  0.1+  0.1-    150131 K91  0.1+  0.1-    150211 291  0.2+  0.1+
    150129 F51  0.2+  0.0     150131 K92  0.2+  0.2-
    
    Ephemeris:
    2015 BV515               a,e,i = 2.01, 0.64, 8                   q = 0.7207
    Date    TT    R. A. (2000) Decl.     Delta      r     Elong.  Phase     V
    2015 01 12    11 20 01.1 +12 39 01   0.7658  1.5551   125.0    31.2    22.7
    ...
    2015 01 27    11 50 16.2 +14 23 07   0.5400  1.4107   133.3    30.5    21.7
    ...
    2015 02 04    12 11 39.6 +16 17 08   0.4322  1.3314   136.1    30.9    21.1
    ...
    2015 02 10    12 32 47.9 +18 24 20   0.3580  1.2711   136.7    32.2    20.7
    2015 02 11    12 36 58.1 +18 49 58   0.3462  1.2610   136.6    32.5    20.6
    2015 02 12    12 41 22.3 +19 17 02   0.3347  1.2509   136.4    33.0    20.5
    ...
    2015 02 18    13 14 15.3 +22 32 41   0.2698  1.1901   133.5    37.1    20.0
    ...
    2015 02 26    14 27 16.0 +28 15 04   0.1995  1.1090   122.1    49.1    19.6
    ...
    2015 03 13    18 49 13.1 +26 58 43   0.1668  0.9613    74.0    96.4    20.5
    
    A. U. Tomatic                (C) Copyright 2015 MPC           M.P.E.C. 2015-C46
    

    Read MPEC 2015-C45 Read MPEC 2015-C47


    MPEC number:

    Enter an MPEC number in one of the following forms:

    • 1997-B01 (the full form)
    • J97B01 (the packed version of the full form)
    • B01 (the abbreviated form)